Location: Observatoire
(46.1952°N, 5.3391°E)
Time: 22:24:41
(UTC+01:00)

Tiros 1 despin weight - Pass Details

Date: 22 February 2026
Orbit: 556 x 593 km, 48.2° (Epoch: 3 March)

Event Time Altitude Azimuth Distance (km) Brightness Sun altitude
Rises 14:55:40 0° 247° (WSW) 2,746 ? 27.3°
Reaches altitude 10° 14:57:56 10° 246° (WSW) 1,846 ? 27.1°
Maximum altitude 15:02:08 79° 161° (SSE) 572 ? 26.7°
Drops below altitude 10° 15:06:20 10° 74° (ENE) 1,839 ? 26.2°
Sets 15:08:35 0° 73° (ENE) 2,734 ? 26.0°
